Regional Weather Roundup
Issued by NWS Cleveland, OH

Home | Current Version | Previous Version | Text Only | Print | Product List | Glossary Off
Versions: 1 2 3 4 5 6 7 8 9 10 11 12 13 14 15 16 17 18 19 20 21 22 23 24 25 26 27 28 29 30 31 32 33 34 35 36 37 38 39 40 41 42 43 44 45 46 47 48 49 50

000
ASUS41 KCLE 202302
RWRCLE
OHIO REGIONAL WEATHER ROUNDUP
NATIONAL WEATHER SERVICE CLEVELAND, OH
700 PM EDT SAT SEP 20 2014

NOTE: "FAIR" INDICATES FEW OR NO CLOUDS BELOW 12,000 FEET WITH NO
SIGNIFICANT WEATHER AND/OR OBSTRUCTIONS TO VISIBILITY.

OHZ001>008-015>018-024>027-034-035-043-044-210000-
   NORTHWEST OHIO

CITY           SKY/WX    TMP DP  RH WIND       PRES   REMARKS
DEFIANCE       MOCLDY     1  32 100 VRB7      29.88R WCI -12
FINDLAY        PTCLDY    77  59  53 SW14      29.86S
TOLEDO EXPRESS MOCLDY    76  59  55 SW10      29.84S
TOLEDO EXEC    PTCLDY    77  57  50 SW12      29.84F
LIMA           CLEAR     78  60  53 SW14      29.88F
$$

OHZ009>014-019>023-028>033-038-089-210000-
   NORTHEAST OHIO

CITY           SKY/WX    TMP DP  RH WIND       PRES   REMARKS
CLE-HOPKINS    PTCLDY    76  59  55 S14       29.88F
CLE-LAKEFRONT  PTCLDY    78  61  55 S12       29.85F
CUY CO. ARPT   PTCLDY    77  64  65 SW12      29.88F
LORAIN-ELYRIA  CLEAR     78  59  51 SW12      29.87F
ASHTABULA      CLEAR     73  62  68 S12       29.90F
AKRON-CANTON   PTCLDY    75  61  61 S14       29.92F
WOOSTER        CLEAR     75  63  66 S9        29.91F
MANSFIELD      CLEAR     75  59  57 SW14      29.91S
YOUNGSTOWN     PTCLDY    73  61  65 S8        29.92F
$$

OHZ042-051>053-060>062-070>072-077>081-210000-
  SOUTHWEST OHIO

CITY           SKY/WX    TMP DP  RH WIND       PRES   REMARKS
CINC-COVINGTON PTCLDY    77  63  61 SW6       29.94F
CINC-LUNKEN    PTCLDY    78  63  59 S9        29.93F
HAMILTON       CLEAR     78  64  61 VRB7      29.93F
DAYTON         MOCLDY    78  63  59 SW15G25   29.93R
WRIGHT-PAT AFB CLEAR     77  63  61 SW16G22   29.92S
DAYTON GENERAL CLEAR     77  63  61 SW12      29.92F
WILMINGTON     PTCLDY    76  62  62 SW9       29.93F
$$

OHZ036-037-039>041-045>050-054>059-063>069-073>076-082>088-210000-
  CENTRAL AND SOUTHEAST OHIO

CITY           SKY/WX    TMP DP  RH WIND       PRES   REMARKS
COLUMBUS       PTCLDY    81  59  47 S13       29.91F
OSU AIRPORT    CLEAR     78  61  55 SW10      29.91F
BOLTON FIELD   CLEAR     77  63  61 SW14G21   29.92F
RICKENBACK AFB PTCLDY    78  61  55 S9        29.92F
NEWARK         CLEAR     76  60  57 SW8       29.92F
MARION         PTCLDY    76  59  55 SW12      29.90S
LANCASTER      CLEAR     78  61  55 SW7       29.94F
ZANESVILLE     PTCLDY    77  61  57 S8        29.94F
NEW PHILLY     CLEAR     75  62  64 S5        29.94F
$$



USA.gov is the U.S. government's official web portal to all federal, state and local government web resources and services.